Preview of NWS' New Version of Forecast
This preview is not operational and should not be used for support decisions.

Regional Weather Roundup (RWR)

Issued by National Weather Service (NWS)

                            
000
ASPQ40 PGUM 220110
RWRPQ 
WEATHER ROUNDUP FOR THE MARIANAS AND MICRONESIA
NATIONAL WEATHER SERVICE TIYAN GU
1100 AM CHST MON APR 22 2019

GUZ001>004-220200-
MARIANA ISLANDS-
  
CITY           SKY/WX    TMP DP  RH WIND       PRES   REMARKS
GUAM AIRPORT   PTSUNNY   88  72  58 E16       29.93S HX  94           
ANDERSEN AFB   PTSUNNY   88  75  66 E13       29.94S HX  97           
ROTA AIRPORT   MOSUNNY   84  73  70 E21       29.92S HX  91           
TINIAN AP      MOSUNNY   88  75  66 E12       29.90F HX  97           
SAIPAN AP      MOSUNNY   88  73  62 E15       29.92F HX  96           

$$

PMZ161-220200-
REPUBLIC OF PALAU-
  
CITY           SKY/WX    TMP DP  RH WIND       PRES   REMARKS
KOROR AP       PTSUNNY   84  75  74 NE15G22   29.81F HX  92           
KOROR WSO      NOT AVBL                                               

$$

PMZ171>174-220200-
FEDERATED STATES OF MICRONESIA-
  
CITY           SKY/WX    TMP DP  RH WIND       PRES   REMARKS
YAP AIRPORT    PTSUNNY   90  75  62 E8        29.84F HX 100           
CHUUK AP       PTSUNNY   88  79  74 NE9       29.81  HX 102           
POHNPEI AP     CLOUDY    88  77  70 E12       29.82S HX 100           
POHNPEI WSO    PTSUNNY   86  77  74 NE7       29.85F HX  97           
KOSRAE AP      PTSUNNY   86  75  70 NE23      29.80F HX  95           

$$

PMZ181-220200-
REPUBLIC OF THE MARSHALL ISLANDS-
  
CITY           SKY/WX    TMP DP  RH WIND       PRES   REMARKS
KWAJALEIN AP   PTSUNNY   88  75  66 E22       29.85F HX  97           
MAJURO AP      NOT AVBL                                               
MAJURO WSO     LGT RAIN  81  79  94 E9        29.82F                  

$$